Regional Weather Roundup
Issued by NWS Wakefield, VA

Home | Current Version | Previous Version | Text Only | Print | Product List | Glossary On
Versions: 1 2 3 4 5 6 7 8 9 10 11 12 13 14 15 16 17 18 19 20 21 22 23 24 25 26 27
000
ASUS41 KAKQ 081215
RWRAKQ

REGIONAL WEATHER ROUNDUP
NATIONAL WEATHER SERVICE WAKEFIELD VA
700 AM EST THU DEC 08 2016

Note: "fair" indicates few or no clouds below 12,000 feet with no
significant weather and/or obstructions to visibility. * = Denotes
station may not report precipitation (e.g., rain,snow,etc.),
thunder or fog.

VAZ042-051-052>054-056-081300-
NORTHERN VIRGINIA

CITY           SKY/WX    TMP DP  RH WIND       PRES   REMARKS
WASH NATIONAL  CLOUDY    42  34  73 NE3       30.05S
DULLES         CLOUDY    37  33  85 CALM      30.04S
FORT BELVOIR   CLOUDY    37  35  92 CALM      30.05S
QUANTICO       CLOUDY    40  36  86 NW5       30.06S
FREDERICKSBRG* CLOUDY    38  38 100 CALM      30.04S
STAFFORD*      CLOUDY    36  36 100 CALM      30.08S
WARRENTON      CLOUDY    37  33  82 CALM      30.04S
CULPEPER*      CLOUDY    36  35  95 CALM      30.05F
MANASSAS*        N/A    N/A N/A N/A MISG        N/A
LEESBURG*      CLOUDY    37  34  87 MISG      30.05S
WINCHESTER     CLOUDY    32  28  86 W3        30.04R
FRONT ROYAL*   CLOUDY    32  32 100 SW3       30.03S
LURAY*         CLOUDY    32  32 100 SW3       30.04S
$$

VAZ048-049-060>072-079>083-081300-
CENTRAL AND SOUTH CENTRAL VIRGINIA

CITY           SKY/WX    TMP DP  RH WIND       PRES   REMARKS
RICHMOND       CLOUDY    40  39  97 CALM      30.03S FOG
CHESTERFIELD*  PTSUNNY   39  25  56 N3        30.04R
PETERSBURG*    CLOUDY    39  38  96 CALM      30.03S
HANOVER        CLOUDY    38  35  89 CALM      30.05R
TAPPAHANNOCK*  CLOUDY    36  36 100 CALM      30.04F
QUINTON*       CLOUDY    38  37  99 MISG      30.02S
CHARLOTTSVILLE MOCLDY    37  34  89 CALM      30.03R
GORDONSVILLE*  CLOUDY    36  35  99 CALM      30.03S
ORANGE*          N/A     37  36  93 CALM      30.06R
LOUISA*        CLOUDY    41  39  93 N8        30.02R
BUMPASS*       CLOUDY    37  37  99 CALM      30.04R
FARMVILLE*     CLOUDY    41  41 100 CALM      30.01F
CREWE*         CLOUDY    42  42 100 CALM      30.02R
FORT PICKETT*  CLOUDY    43  39  87 CALM      30.02R
CHASE CITY*    CLOUDY    42  40  95 CALM      30.03S
CLARKSVILLE*   CLOUDY    43  43 100 CALM      30.03R
SOUTH HILL*    CLOUDY    44  44 100 S5        30.08R
LAWRENCEVILLE* CLOUDY    44  43  97 MISG      30.02S
EMPORIA*       CLOUDY    43  43 100 CALM      30.05S
$$

VAZ088>098-081300-
SOUTHEAST VIRGINIA

CITY           SKY/WX    TMP DP  RH WIND       PRES   REMARKS
NORFOLK        CLOUDY    43  40  89 S3        30.04R
VIRGINIA BEACH CLOUDY    40  38  93 CALM      30.03S
NORFOLK NAVAL  CLOUDY    44  41  89 S3        30.05S
WEST POINT*    CLOUDY    38  38  99 CALM      30.05S
SALUDA*        CLOUDY    40  40 100 CALM      30.04R
NEWPORT NEWS   CLOUDY    42  41  96 CALM      30.04S
LANGLEY AFB    CLOUDY    44  42  95 CALM      30.03S
FORT EUSTIS    CLOUDY    45  43  92 S3        30.01S
WILLIAMSBURG*  CLOUDY    46  45  93 CALM      30.04F
HR EXEC AP*    CLOUDY    41  37  87 CALM      30.04R
FRANKLIN*      CLOUDY    43  42  95 SE3       30.05R
US460-WAKEFLD  CLOUDY    42  42 100 CALM      30.03S FOG
$$

VAZ020-022-025-037-045-081300-
WEST CENTRAL AND SOUTHWEST VIRGINIA

CITY           SKY/WX    TMP DP  RH WIND       PRES   REMARKS
STAUNTON*      CLOUDY    32  31  97 CALM      30.06S
WAYNESBORO*    PTSUNNY   37  23  56 W5        30.03S
HOT SPRINGS VA CLOUDY    28  19  69 W14       29.95S WCI  17
LYNCHBURG      CLOUDY    38  35  89 CALM      30.05R
DANVILLE       CLOUDY    41  38  89 W5        30.05R
SOUTH BOSTON*  CLOUDY    39  38  96 CALM      30.05R
MARTINSVILLE   CLOUDY    42  28  58 N9        30.09R
ROANOKE        CLOUDY    41  24  51 W5        30.09R
BLACKSBURG     MOCLDY    36  25  64 W8        30.08R
DUBLIN*        MOCLDY    37  24  58 NW12G18   30.09R
MARION*        CLOUDY    35  22  60 W12       30.10S
HILLSVILLE*    CLOUDY    34  27  74 CALM      30.04R
RICHLANDS*     CLOUDY    31  26  80 W5        30.11R
WISE*          CLOUDY    32  18  55 W5        30.15R
ABINGDON*      CLOUDY    37  23  56 W7        30.13R
$$

MDZ021>025-VAZ099-100-081300-
SOUTHERN MARYLAND AND THE DELMARVA PENINSULA

CITY           SKY/WX    TMP DP  RH WIND       PRES   REMARKS
PATUXENT RIVER CLOUDY    40  38  93 CALM      30.04R
BAY BRIDGE APT CLOUDY    45  28  53 NW8       30.04S
LEONARDTOWN    CLOUDY    37  36  93 CALM      30.05S
DOVER          CLOUDY    35  35 100 CALM      30.03R
GEORGETOWN     MOCLDY    33  32  96 CALM      30.05R FOG
EASTON         CLOUDY    36  32  87 CALM      30.08R
CAMBRIDGE      CLOUDY    32  32 100 CALM      30.04R
SALISBURY      FOG       32  32 100 CALM      30.05R VSB 1/4
OCEAN CITY     MOCLDY    37  35  92 NW6       30.05R FOG
WALLOPS ISLAND PTCLDY    34  34 100 CALM      30.05R FOG
ACCOMACK*      CLOUDY    36  35  96 CALM      30.04S
$$

NCZ012>017-030>032-081300-
NORTH CENTRAL AND EASTERN NORTH CAROLINA

CITY           SKY/WX    TMP DP  RH WIND       PRES   REMARKS
ROANOKE RAPIDS CLOUDY    46  45  93 CALM      30.03S
RALEIGH        CLOUDY    48  46  93 CALM      30.03R
ELIZABETH CITY CLOUDY    46  45  96 S3        30.05S
AHOSKIE*       CLOUDY    46  44  93 CALM      30.04S
EDENTON*       CLOUDY    50  46  84 CALM      30.05S
CURRITUCK*     CLOUDY    44  44 100 CALM      30.05S
KILL DEVIL HLS CLOUDY    46  46 100 CALM      30.04S
MANTEO         CLOUDY    43  42  99 CALM      30.06S
CAPE HATTERAS  NOT AVBL
TARBORO*       NOT AVBL
GOLDSBORO      CLOUDY    50  49  99 S3        30.01F
WASHINGTON       N/A     46  45  97 CALM      30.04S
GREENVILLE     CLOUDY    46  46 100 CALM      30.06S
NEW BERN       CLOUDY    49  47  93 S5        30.05S
WILMINGTON     CLOUDY    48  48 100 W10       30.06F
$$

VAZ048-081300-
ELSEWHERE

CITY           SKY/WX    TMP DP  RH WIND       PRES   REMARKS
HARRISBURG PA  CLOUDY    33  30  88 CALM      30.01R
BALTIMORE      CLOUDY    38  35  89 SW3       30.03S
ANNAPOLIS      CLOUDY    41  32  70 CALM      30.04S
ANDREWS AFB    CLOUDY    39  36  90 NE1       30.03S
PHILADELPHIA   CLOUDY    37  29  72 SW6       30.03F
HENDERSON NC   CLOUDY    43  41  91 CALM      30.02R
GREENSBORO     CLOUDY    46  39  76 N3        30.03R
ROCKY MOUNT    CLOUDY    47  47 100 CALM      30.04S
$$

VAZ100-081300-
MARINE

STATION/POSITION TIME  TEMP    WIND        PRES    WAVE   SWELL
                       AIR SEA DIR/SP/G            HT/PER HT/PER
                 (UTC) (F)     (DEG/KT/KT) (MB)    (FT/S) (FT/S)
BRANDYWINE LGT   1148   44     330/  7/ 10   N/A
CAPE MAY NJ      1148   44 48  320/  5/  9 1016.4S
LEWES DE         1148   38 48  280/  3/  4 1017.1R
OCEAN-CITY-INLET 1148      50  320/  4/  5 1017.6R
WACHAPREAGUE VA  1142   39 47   CALM  /  1 1017.3R
THOMAS POINT MD  1200   43 48  310/  7/  8   N/A
GOOSES REEF MD   1150   46     320/  4/  6 1018.0R
COVE POINT MD    1148   44     310/  1/  2 1017.9R
SOLOMONS ISLAND  1148      50   CALM  /  1   N/A
BISHOPS HEAD MD  1148   43 46   10/  2/  3 1017.6R
PINEY POINT MD   1148          300/  1/  1   N/A
POTOMAC MD       1150   46     290/  4/  6 1016.3R
CAMBRIDGE MD     1148   37 47  210/  3/  3 1016.7R
LEWISETTA VA     1142   42 48  330/  3/  3 1016.9R
RAPPAHANNOCK LGT 1148          150/  4/  4 1017.7R
STINGRAY PT      1150   47     210/  6/  6 1017.5R
YORK RVR RNG VA  1142   48     210/  6/  7 1016.7R
YORKTOWN VA      1142   45 51  210/  5/  5 1016.8R
JAMESTOWN VA     1150   45     150/  4/  8   N/A
DOMINION TERM VA 1142   47     190/  5/  5 1017.1S
KIPTOPEKE VA     1148      51  210/  5/  5   N/A
CHES BAY BRIDGE  1142   48 53  200/  4/  6 1017.0R
CAPE HENRY VA    1142   46     180/  7/  8   N/A
WILLOUBY STN VA  1142   47     170/  5/  6 1017.7F
S CRANEY ISL VA  1142   46     180/  4/  5 1016.9R
CAPE HENRY BUOY  1142      54                N/A     3/11   2/11
CAPE CHARLES BUO 1156      54                N/A     3/ 9   2/11
OFFSHORE WE BUOY 1151      56                N/A     4/ 8   2/11
64NM E OF VA BCH 1150   52 58  350/  4/  6 1016.8F   4/10   5/10
DUCK PIER NC     1142   49 53  200/  5/  5 1016.8F
44100 DUCK FRF   1105      55                N/A     4/ 8   2/11
OREGON INLET NC  1142   50 55  220/  3/  5 1017.4F
HATTERAS NC      1148      60   40/  6/  6 1016.8F
DIAMOND SHLS NC  1150   57 78  350/  6/  8 1017.7S   4/ 9   5/ 9
CAPE LOOKOUT NC  1200   57      80/  4/  4 1017.0S
$$




USA.gov is the U.S. government's official web portal to all federal, state and local government web resources and services.